QPF
0.00 0.00 0.00 0.00 0.00 0.00 0.00 0.00 0.00 0.00 0.00 0.00 0.00 0.00 0.00 0.00 0.00 0.00 0.00 0.00 0.00 0.00 0.00 0.00 0.00 0.00 0.00 0.00 0.00 0.00 0.00 0.00 0.00 0.00 0.00 0.00 0.00 0.00 0.01 0.00 0.01 0.02 0.01
0.00 0.00 0.00 0.00 0.00 0.00 0.00 0.00 0.00 0.00 0.00 0.00 0.00 0.00 0.00 0.00 0.00 0.00 0.00 0.00 0.00 0.00 0.00 0.00 0.00 0.00 0.00 0.00 0.00 0.00 0.00 0.00 0.00 0.00 0.00 0.00 0.00 0.00 0.00 0.00 0.01 0.01 0.00
0.00 0.00 0.00 0.00 0.00 0.00 0.00 0.00 0.00 0.00 0.00 0.00 0.00 0.00 0.00 0.00 0.00 0.00 0.00 0.00 0.00 0.00 0.00 0.00 0.00 0.00 0.00 0.00 0.00 0.00 0.00 0.00 0.00 0.00 0.00 0.00 0.00 0.00 0.00 0.00 0.00 0.00 0.00
0.00 0.00 0.00 0.00 0.00 0.00 0.00 0.00 0.00 0.00 0.00 0.00 0.00 0.00 0.00 0.00 0.00 0.00 0.00 0.00 0.00 0.00 0.00 0.00 0.00 0.00 0.00 0.00 0.00 0.00 0.00 0.00 0.00 0.00 0.00 0.00 0.00 0.00 0.00 0.00 0.00 0.00 0.00
0.00 0.00 0.00 0.00 0.00 0.00 0.00 0.00 0.00 0.00 0.00 0.00 0.00 0.00 0.00 0.00 0.00 0.00 0.00 0.00 0.00 0.00 0.00 0.00 0.00 0.00 0.00 0.00 0.00 0.00 0.00 0.00 0.00 0.00 0.00 0.00 0.01 0.01 0.01 0.02 0.02 0.01 0.01
0.00 0.00 0.00 0.00 0.00 0.00 0.00 0.00 0.00 0.00 0.00 0.00 0.00 0.00 0.00 0.00 0.00 0.00 0.00 0.00 0.00 0.00 0.00 0.00 0.00 0.00 0.00 0.00 0.00 0.00 0.00 0.00 0.00 0.00 0.00 0.00 0.01 0.01 0.01 0.07 0.09 0.06 0.03
0.00 0.00 0.00 0.00 0.00 0.00 0.00 0.00 0.00 0.00 0.00 0.00 0.00 0.00 0.00 0.00 0.00 0.00 0.00 0.00 0.00 0.00 0.00 0.00 0.00 0.00 0.00 0.00 0.00 0.00 0.00 0.00 0.00 0.00 0.00 0.00 0.01 0.00 0.01 0.07 0.17 0.17 0.13
0.00 0.00 0.00 0.00 0.00 0.00 0.00 0.00 0.00 0.00 0.00 0.00 0.00 0.00 0.00 0.00 0.00 0.00 0.00 0.00 0.00 0.00 0.00 0.00 0.00 0.00 0.00 0.00 0.01 0.01 0.01 0.01 0.00 0.00 0.00 0.00 0.00 0.00 0.00 0.05 0.16 0.21 0.19
0.00 0.00 0.00 0.00 0.00 0.00 0.00 0.00 0.00 0.00 0.00 0.00 0.00 0.00 0.00 0.00 0.00 0.00 0.00 0.01 0.01 0.01 0.01 0.01 0.01 0.01 0.01 0.01 0.01 0.01 0.01 0.01 0.01 0.01 0.00 0.00 0.01 0.00 0.00 0.03 0.08 0.15 0.18
0.00 0.00 0.00 0.00 0.00 0.00 0.00 0.00 0.00 0.00 0.00 0.00 0.00 0.00 0.00 0.00 0.00 0.00 0.00 0.01 0.01 0.02 0.02 0.02 0.02 0.02 0.01 0.01 0.01 0.01 0.01 0.01 0.01 0.02 0.03 0.02 0.02 0.01 0.01 0.02 0.05 0.10 0.13
0.00 0.00 0.00 0.00 0.00 0.00 0.00 0.00 0.00 0.00 0.00 0.00 0.00 0.00 0.00 0.00 0.00 0.01 0.00 0.00 0.01 0.01 0.01 0.02 0.02 0.02 0.02 0.01 0.01 0.02 0.01 0.01 0.01 0.01 0.03 0.02 0.02 0.02 0.03 0.03 0.04 0.07 0.10
0.00 0.00 0.00 0.00 0.00 0.00 0.00 0.00 0.01 0.01 0.01 0.01 0.01 0.01 0.01 0.01 0.01 0.00 0.00 0.00 0.00 0.00 0.01 0.01 0.03 0.02 0.03 0.03 0.06 0.07 0.03 0.02 0.01 0.01 0.02 0.02 0.03 0.05 0.06 0.06 0.05 0.06 0.08
0.00 0.00 0.00 0.00 0.00 0.00 0.00 0.00 0.01 0.01 0.01 0.01 0.01 0.01 0.01 0.01 0.01 0.00 0.00 0.00 0.00 0.00 0.01 0.02 0.05 0.06 0.08 0.10 0.11 0.10 0.06 0.04 0.03 0.02 0.02 0.02 0.05 0.06 0.11 0.10 0.08 0.08 0.08
0.00 0.00 0.00 0.00 0.00 0.01 0.01 0.01 0.00 0.00 0.00 0.01 0.01 0.00 0.01 0.01 0.00 0.00 0.00 0.00 0.01 0.01 0.02 0.03 0.06 0.11 0.13 0.13 0.13 0.11 0.10 0.10 0.08 0.07 0.05 0.03 0.04 0.06 0.13 0.11 0.08 0.08 0.08
0.00 0.01 0.01 0.00 0.01 0.01 0.01 0.01 0.01 0.01 0.01 0.01 0.01 0.01 0.01 0.01 0.02 0.03 0.02 0.02 0.02 0.04 0.05 0.08 0.11 0.17 0.18 0.17 0.14 0.12 0.11 0.13 0.12 0.11 0.07 0.04 0.05 0.06 0.10 0.11 0.10 0.09 0.08
0.01 0.01 0.02 0.02 0.02 0.01 0.01 0.01 0.01 0.01 0.02 0.02 0.02 0.03 0.03 0.04 0.05 0.07 0.07 0.07 0.07 0.09 0.12 0.16 0.22 0.25 0.21 0.19 0.14 0.13 0.13 0.13 0.11 0.11 0.09 0.07 0.06 0.04 0.06 0.09 0.10 0.09 0.09
0.01 0.02 0.03 0.04 0.03 0.02 0.01 0.02 0.03 0.04 0.05 0.05 0.06 0.08 0.08 0.09 0.09 0.09 0.08 0.09 0.12 0.14 0.15 0.16 0.20 0.25 0.19 0.16 0.12 0.14 0.14 0.11 0.09 0.09 0.10 0.09 0.05 0.03 0.03 0.04 0.05 0.06 0.07
0.01 0.02 0.05 0.06 0.04 0.02 0.03 0.03 0.04 0.05 0.05 0.05 0.07 0.09 0.11 0.14 0.14 0.13 0.10 0.09 0.14 0.16 0.16 0.18 0.21 0.24 0.20 0.17 0.14 0.12 0.11 0.10 0.08 0.07 0.07 0.07 0.05 0.02 0.01 0.01 0.01 0.02 0.02
0.01 0.03 0.04 0.03 0.02 0.02 0.02 0.02 0.02 0.03 0.04 0.05 0.07 0.08 0.12 0.14 0.13 0.13 0.10 0.08 0.14 0.14 0.11 0.13 0.19 0.24 0.24 0.23 0.21 0.15 0.10 0.09 0.06 0.05 0.04 0.03 0.03 0.03 0.01 0.01 0.01 0.01 0.00
0.01 0.01 0.01 0.01 0.01 0.01 0.01 0.01 0.02 0.02 0.02 0.03 0.05 0.05 0.07 0.08 0.09 0.10 0.08 0.08 0.12 0.12 0.10 0.13 0.18 0.23 0.21 0.23 0.22 0.15 0.12 0.09 0.07 0.06 0.04 0.02 0.02 0.01 0.01 0.01 0.01 0.00 0.00
0.01 0.00 0.01 0.01 0.00 0.00 0.00 0.00 0.01 0.01 0.01 0.01 0.01 0.01 0.02 0.02 0.03 0.04 0.05 0.06 0.09 0.10 0.11 0.14 0.21 0.25 0.22 0.24 0.26 0.18 0.12 0.10 0.08 0.05 0.04 0.02 0.02 0.01 0.01 0.01 0.01 0.00 0.00
0.01 0.00 0.00 0.00 0.00 0.00 0.00 0.00 0.00 0.00 0.00 0.00 0.00 0.00 0.00 0.00 0.00 0.01 0.01 0.03 0.04 0.05 0.08 0.11 0.15 0.17 0.16 0.21 0.21 0.20 0.14 0.10 0.07 0.06 0.05 0.05 0.04 0.03 0.02 0.01 0.01 0.01 0.01
0.00 0.00 0.00 0.00 0.00 0.00 0.00 0.00 0.00 0.00 0.00 0.00 0.00 0.00 0.00 0.00 0.00 0.00 0.00 0.01 0.02 0.02 0.02 0.04 0.07 0.09 0.10 0.13 0.14 0.17 0.15 0.10 0.11 0.10 0.09 0.06 0.04 0.03 0.02 0.02 0.01 0.01 0.01
0.00 0.00 0.00 0.00 0.00 0.00 0.00 0.00 0.00 0.00 0.00 0.00 0.00 0.00 0.00 0.00 0.00 0.00 0.00 0.00 0.01 0.01 0.01 0.01 0.03 0.04 0.06 0.06 0.07 0.08 0.10 0.13 0.13 0.10 0.08 0.04 0.02 0.02 0.01 0.02 0.02 0.02 0.03
0.01 0.01 0.00 0.00 0.00 0.00 0.00 0.00 0.00 0.00 0.00 0.00 0.00 0.00 0.00 0.00 0.00 0.00 0.00 0.00 0.01 0.01 0.01 0.02 0.02 0.03 0.03 0.03 0.04 0.05 0.06 0.08 0.08 0.07 0.05 0.04 0.03 0.02 0.02 0.03 0.04 0.04 0.04
0.01 0.01 0.00 0.00 0.00 0.00 0.00 0.00 0.00 0.00 0.00 0.00 0.00 0.00 0.00 0.00 0.00 0.00 0.00 0.00 0.00 0.01 0.01 0.02 0.02 0.02 0.03 0.03 0.04 0.05 0.05 0.04 0.03 0.04 0.03 0.04 0.05 0.04 0.04 0.05 0.06 0.06 0.04
MSLP
1010.37 1010.57 1010.98 1011.54 1012.17 1012.77 1013.27 1013.61 1013.80 1013.88 1013.91 1013.97 1014.11 1014.36 1014.69 1015.07 1015.44 1015.75 1015.97 1016.08 1016.11 1016.09 1016.05 1016.05 1016.08 1016.16 1016.27 1016.38 1016.47 1016.51 1016.52 1016.49 1016.46 1016.44 1016.46 1016.51 1016.61 1016.72 1016.83 1016.93 1017.01 1017.07 1017.10
1010.13 1010.45 1010.98 1011.66 1012.38 1013.04 1013.56 1013.90 1014.07 1014.11 1014.11 1014.13 1014.24 1014.47 1014.79 1015.16 1015.53 1015.83 1016.04 1016.13 1016.15 1016.12 1016.10 1016.11 1016.19 1016.32 1016.48 1016.63 1016.73 1016.78 1016.77 1016.72 1016.66 1016.61 1016.61 1016.66 1016.76 1016.88 1017.01 1017.13 1017.21 1017.27 1017.31
1009.92 1010.36 1010.99 1011.75 1012.53 1013.23 1013.78 1014.13 1014.30 1014.33 1014.31 1014.32 1014.42 1014.63 1014.93 1015.28 1015.62 1015.89 1016.05 1016.12 1016.11 1016.08 1016.08 1016.14 1016.26 1016.45 1016.65 1016.83 1016.95 1016.98 1016.94 1016.85 1016.74 1016.66 1016.63 1016.67 1016.77 1016.91 1017.06 1017.20 1017.30 1017.37 1017.42
1009.79 1010.31 1011.00 1011.81 1012.63 1013.35 1013.91 1014.28 1014.45 1014.50 1014.50 1014.52 1014.62 1014.83 1015.11 1015.42 1015.71 1015.93 1016.05 1016.07 1016.05 1016.03 1016.05 1016.15 1016.33 1016.56 1016.80 1017.00 1017.11 1017.12 1017.03 1016.88 1016.72 1016.60 1016.55 1016.58 1016.68 1016.84 1017.01 1017.17 1017.30 1017.39 1017.46
1009.77 1010.33 1011.04 1011.86 1012.67 1013.39 1013.95 1014.33 1014.53 1014.61 1014.64 1014.69 1014.82 1015.02 1015.29 1015.56 1015.80 1015.96 1016.03 1016.02 1015.99 1015.97 1016.02 1016.17 1016.40 1016.67 1016.94 1017.14 1017.23 1017.20 1017.06 1016.85 1016.64 1016.47 1016.39 1016.42 1016.53 1016.71 1016.91 1017.09 1017.24 1017.36 1017.45
1009.86 1010.41 1011.11 1011.89 1012.67 1013.36 1013.90 1014.28 1014.51 1014.63 1014.71 1014.81 1014.96 1015.17 1015.42 1015.66 1015.85 1015.96 1015.98 1015.95 1015.91 1015.91 1016.00 1016.18 1016.45 1016.75 1017.03 1017.22 1017.28 1017.21 1017.01 1016.75 1016.50 1016.30 1016.21 1016.23 1016.36 1016.55 1016.78 1016.98 1017.16 1017.29 1017.39
1010.04 1010.55 1011.18 1011.90 1012.61 1013.25 1013.77 1014.15 1014.40 1014.56 1014.69 1014.83 1015.01 1015.23 1015.46 1015.67 1015.82 1015.88 1015.87 1015.82 1015.78 1015.80 1015.92 1016.14 1016.43 1016.75 1017.03 1017.20 1017.23 1017.11 1016.87 1016.58 1016.29 1016.08 1015.99 1016.02 1016.17 1016.39 1016.63 1016.85 1017.03 1017.17 1017.28
1010.26 1010.70 1011.26 1011.89 1012.52 1013.10 1013.58 1013.94 1014.21 1014.40 1014.56 1014.73 1014.93 1015.15 1015.37 1015.54 1015.65 1015.69 1015.66 1015.60 1015.56 1015.60 1015.74 1015.98 1016.29 1016.60 1016.87 1017.01 1017.01 1016.86 1016.60 1016.28 1015.99 1015.79 1015.72 1015.78 1015.95 1016.18 1016.44 1016.67 1016.86 1016.99 1017.09
1010.48 1010.85 1011.32 1011.85 1012.40 1012.91 1013.34 1013.69 1013.96 1014.16 1014.34 1014.53 1014.72 1014.93 1015.12 1015.26 1015.34 1015.35 1015.30 1015.24 1015.22 1015.27 1015.41 1015.65 1015.95 1016.25 1016.49 1016.60 1016.57 1016.41 1016.14 1015.84 1015.58 1015.41 1015.37 1015.46 1015.65 1015.91 1016.18 1016.41 1016.59 1016.71 1016.79
1010.66 1010.96 1011.35 1011.79 1012.26 1012.71 1013.10 1013.42 1013.68 1013.88 1014.06 1014.23 1014.41 1014.58 1014.74 1014.85 1014.90 1014.89 1014.83 1014.77 1014.75 1014.80 1014.94 1015.16 1015.42 1015.69 1015.88 1015.97 1015.92 1015.76 1015.51 1015.24 1015.02 1014.90 1014.91 1015.04 1015.27 1015.54 1015.82 1016.05 1016.21 1016.32 1016.38
1010.77 1011.02 1011.34 1011.72 1012.13 1012.52 1012.87 1013.16 1013.39 1013.58 1013.73 1013.88 1014.02 1014.16 1014.27 1014.35 1014.37 1014.35 1014.29 1014.23 1014.20 1014.24 1014.35 1014.53 1014.74 1014.95 1015.10 1015.16 1015.10 1014.95 1014.73 1014.52 1014.35 1014.29 1014.35 1014.52 1014.77 1015.06 1015.34 1015.56 1015.72 1015.81 1015.86
1010.80 1011.02 1011.30 1011.64 1012.00 1012.35 1012.67 1012.93 1013.14 1013.29 1013.41 1013.51 1013.61 1013.70 1013.78 1013.83 1013.83 1013.80 1013.74 1013.68 1013.64 1013.65 1013.72 1013.84 1013.99 1014.13 1014.23 1014.25 1014.19 1014.06 1013.89 1013.73 1013.63 1013.63 1013.73 1013.93 1014.19 1014.48 1014.75 1014.97 1015.12 1015.20 1015.25
1010.75 1010.96 1011.23 1011.53 1011.87 1012.20 1012.49 1012.73 1012.91 1013.03 1013.11 1013.17 1013.22 1013.27 1013.32 1013.35 1013.35 1013.32 1013.26 1013.19 1013.14 1013.11 1013.12 1013.17 1013.25 1013.32 1013.37 1013.37 1013.31 1013.21 1013.09 1012.99 1012.94 1012.98 1013.11 1013.32 1013.58 1013.85 1014.10 1014.31 1014.44 1014.53 1014.58
1010.64 1010.85 1011.11 1011.41 1011.74 1012.05 1012.33 1012.56 1012.71 1012.80 1012.85 1012.87 1012.89 1012.91 1012.94 1012.96 1012.96 1012.94 1012.89 1012.82 1012.74 1012.67 1012.62 1012.60 1012.60 1012.61 1012.62 1012.60 1012.55 1012.48 1012.41 1012.36 1012.35 1012.42 1012.55 1012.74 1012.97 1013.21 1013.43 1013.61 1013.73 1013.82 1013.88
1010.46 1010.68 1010.95 1011.25 1011.58 1011.90 1012.18 1012.39 1012.53 1012.61 1012.63 1012.63 1012.62 1012.62 1012.64 1012.66 1012.68 1012.67 1012.63 1012.56 1012.46 1012.35 1012.24 1012.15 1012.08 1012.04 1012.01 1011.99 1011.96 1011.93 1011.91 1011.90 1011.92 1011.98 1012.09 1012.24 1012.41 1012.59 1012.76 1012.90 1013.01 1013.10 1013.17
1010.23 1010.46 1010.74 1011.06 1011.39 1011.72 1012.00 1012.22 1012.36 1012.43 1012.44 1012.42 1012.40 1012.40 1012.42 1012.46 1012.49 1012.49 1012.46 1012.38 1012.25 1012.10 1011.94 1011.80 1011.68 1011.60 1011.56 1011.55 1011.56 1011.57 1011.59 1011.61 1011.63 1011.67 1011.73 1011.81 1011.90 1012.00 1012.11 1012.20 1012.29 1012.37 1012.45
1009.96 1010.20 1010.49 1010.82 1011.17 1011.51 1011.81 1012.04 1012.18 1012.25 1012.26 1012.24 1012.22 1012.23 1012.25 1012.29 1012.34 1012.35 1012.31 1012.22 1012.07 1011.87 1011.67 1011.48 1011.33 1011.23 1011.20 1011.21 1011.26 1011.32 1011.37 1011.41 1011.44 1011.44 1011.43 1011.42 1011.42 1011.43 1011.46 1011.50 1011.55 1011.62 1011.70
1009.68 1009.92 1010.22 1010.56 1010.93 1011.28 1011.60 1011.84 1012.00 1012.08 1012.10 1012.08 1012.07 1012.07 1012.10 1012.15 1012.18 1012.19 1012.14 1012.02 1011.84 1011.61 1011.36 1011.14 1010.97 1010.87 1010.85 1010.90 1010.99 1011.09 1011.18 1011.23 1011.24 1011.20 1011.12 1011.02 1010.93 1010.84 1010.79 1010.77 1010.79 1010.83 1010.91
1009.40 1009.65 1009.95 1010.30 1010.68 1011.05 1011.38 1011.64 1011.82 1011.91 1011.94 1011.93 1011.92 1011.93 1011.95 1011.99 1012.02 1012.01 1011.93 1011.78 1011.55 1011.28 1011.00 1010.74 1010.55 1010.46 1010.45 1010.53 1010.66 1010.80 1010.92 1010.98 1010.97 1010.88 1010.73 1010.55 1010.37 1010.20 1010.08 1010.01 1009.99 1010.02 1010.09
1009.17 1009.41 1009.71 1010.07 1010.45 1010.84 1011.19 1011.46 1011.65 1011.76 1011.80 1011.80 1011.80 1011.80 1011.81 1011.84 1011.84 1011.80 1011.69 1011.50 1011.23 1010.91 1010.59 1010.30 1010.09 1009.99 1009.99 1010.09 1010.24 1010.40 1010.53 1010.59 1010.55 1010.43 1010.23 1009.98 1009.73 1009.51 1009.33 1009.22 1009.18 1009.20 1009.26
1009.01 1009.24 1009.54 1009.89 1010.28 1010.67 1011.02 1011.31 1011.51 1011.64 1011.69 1011.70 1011.69 1011.69 1011.70 1011.71 1011.69 1011.62 1011.47 1011.23 1010.92 1010.56 1010.19 1009.87 1009.63 1009.50 1009.49 1009.57 1009.72 1009.88 1010.00 1010.04 1009.99 1009.83 1009.60 1009.32 1009.03 1008.78 1008.58 1008.45 1008.40 1008.42 1008.47
1008.95 1009.17 1009.45 1009.79 1010.17 1010.55 1010.90 1011.19 1011.40 1011.54 1011.60 1011.62 1011.62 1011.63 1011.63 1011.62 1011.59 1011.49 1011.31 1011.04 1010.69 1010.29 1009.88 1009.51 1009.22 1009.05 1008.99 1009.04 1009.14 1009.27 1009.36 1009.38 1009.30 1009.13 1008.89 1008.61 1008.32 1008.07 1007.88 1007.76 1007.72 1007.74 1007.79
1009.02 1009.22 1009.47 1009.78 1010.14 1010.49 1010.83 1011.11 1011.31 1011.45 1011.53 1011.56 1011.58 1011.59 1011.60 1011.59 1011.55 1011.45 1011.26 1010.97 1010.60 1010.17 1009.72 1009.30 1008.95 1008.70 1008.57 1008.54 1008.57 1008.63 1008.67 1008.65 1008.56 1008.39 1008.16 1007.91 1007.66 1007.45 1007.30 1007.22 1007.20 1007.23 1007.29
1009.23 1009.39 1009.60 1009.86 1010.17 1010.48 1010.78 1011.04 1011.24 1011.37 1011.45 1011.49 1011.52 1011.55 1011.58 1011.59 1011.56 1011.48 1011.29 1011.01 1010.63 1010.18 1009.70 1009.23 1008.81 1008.48 1008.25 1008.11 1008.05 1008.02 1007.99 1007.93 1007.83 1007.68 1007.49 1007.29 1007.11 1006.98 1006.89 1006.87 1006.89 1006.95 1007.02
1009.57 1009.67 1009.82 1010.02 1010.26 1010.52 1010.77 1010.99 1011.15 1011.27 1011.34 1011.39 1011.43 1011.48 1011.53 1011.56 1011.57 1011.50 1011.35 1011.09 1010.73 1010.28 1009.77 1009.26 1008.77 1008.34 1008.01 1007.75 1007.58 1007.45 1007.36 1007.26 1007.15 1007.04 1006.92 1006.81 1006.72 1006.68 1006.69 1006.74 1006.82 1006.91 1006.99
1010.04 1010.07 1010.14 1010.27 1010.43 1010.61 1010.80 1010.95 1011.07 1011.16 1011.21 1011.25 1011.29 1011.33 1011.40 1011.45 1011.49 1011.46 1011.35 1011.13 1010.79 1010.35 1009.84 1009.29 1008.74 1008.23 1007.79 1007.43 1007.15 1006.93 1006.77 1006.65 1006.56 1006.49 1006.46 1006.45 1006.49 1006.56 1006.67 1006.80 1006.94 1007.07 1007.17
Thickness
5846 5840 5824 5820 5817 5814 5812 5809 5805 5802 5798 5794 5791 5788 5785 5782 5779 5777 5774 5772 5770 5768 5767 5765 5763 5762 5760 5758 5757 5755 5754 5752 5751 5749 5748 5747 5746 5745 5744 5743 5744 5745 5742
5850 5839 5824 5820 5816 5813 5811 5807 5804 5800 5797 5793 5790 5787 5784 5781 5779 5776 5774 5772 5770 5768 5766 5764 5763 5761 5759 5757 5755 5754 5752 5751 5750 5749 5748 5747 5745 5744 5743 5743 5743 5745 5741
5848 5838 5825 5819 5815 5812 5809 5806 5802 5799 5795 5792 5789 5786 5783 5780 5778 5776 5774 5772 5770 5768 5766 5764 5762 5760 5758 5756 5754 5752 5751 5750 5749 5748 5748 5752 5747 5743 5742 5742 5741 5741 5739
5845 5836 5827 5818 5814 5810 5807 5804 5801 5797 5794 5790 5787 5784 5781 5779 5777 5775 5773 5771 5769 5767 5765 5763 5761 5759 5757 5755 5753 5751 5750 5749 5748 5748 5752 5755 5751 5745 5742 5741 5740 5739 5738
5842 5835 5826 5817 5813 5809 5805 5802 5799 5795 5792 5789 5786 5783 5780 5778 5776 5774 5772 5770 5769 5767 5765 5762 5760 5758 5756 5754 5753 5751 5750 5748 5748 5748 5755 5753 5752 5746 5743 5742 5740 5739 5738
5840 5834 5824 5815 5811 5807 5804 5800 5797 5794 5791 5787 5784 5782 5779 5777 5775 5773 5771 5770 5768 5766 5765 5763 5760 5758 5756 5754 5753 5751 5750 5749 5748 5754 5756 5753 5753 5747 5744 5742 5741 5740 5738
5840 5834 5822 5814 5809 5806 5802 5798 5795 5792 5789 5786 5783 5781 5778 5776 5774 5772 5771 5769 5768 5766 5764 5763 5761 5759 5757 5755 5753 5752 5751 5750 5751 5758 5757 5755 5753 5748 5745 5743 5742 5741 5739
5839 5833 5821 5812 5808 5804 5800 5797 5793 5790 5787 5784 5782 5779 5777 5775 5773 5772 5770 5769 5767 5766 5765 5763 5761 5759 5758 5756 5755 5753 5752 5750 5754 5759 5758 5757 5754 5749 5745 5744 5743 5742 5741
5838 5832 5822 5813 5807 5802 5798 5795 5791 5788 5786 5783 5780 5778 5776 5774 5773 5771 5770 5769 5768 5766 5765 5764 5762 5760 5759 5757 5756 5754 5753 5752 5753 5760 5761 5760 5756 5751 5747 5745 5744 5744 5743
5833 5828 5822 5816 5810 5804 5799 5793 5790 5787 5784 5781 5779 5777 5775 5774 5772 5771 5770 5769 5768 5767 5765 5764 5763 5762 5760 5759 5757 5756 5754 5753 5757 5761 5762 5761 5756 5752 5749 5747 5746 5746 5745
5825 5823 5820 5816 5809 5805 5802 5796 5789 5785 5782 5780 5778 5776 5774 5776 5778 5775 5773 5771 5768 5766 5765 5764 5763 5762 5760 5760 5759 5758 5756 5759 5764 5765 5764 5761 5757 5753 5751 5750 5749 5748 5748
5818 5817 5816 5813 5807 5803 5800 5795 5791 5788 5785 5781 5780 5778 5776 5776 5775 5775 5773 5769 5767 5765 5764 5764 5763 5762 5761 5764 5764 5760 5760 5763 5764 5766 5765 5761 5757 5755 5753 5752 5751 5750 5750
5817 5815 5813 5809 5803 5800 5797 5793 5790 5788 5785 5781 5778 5775 5773 5772 5772 5773 5773 5772 5769 5766 5766 5767 5765 5765 5766 5766 5765 5763 5763 5764 5765 5766 5766 5761 5758 5756 5754 5754 5753 5752 5751
5816 5813 5811 5806 5799 5795 5793 5790 5786 5785 5782 5780 5777 5773 5772 5771 5769 5770 5769 5769 5769 5768 5767 5766 5765 5765 5764 5764 5763 5762 5762 5761 5762 5762 5761 5759 5757 5756 5755 5754 5754 5753 5753
5812 5810 5807 5802 5797 5791 5787 5784 5782 5780 5779 5776 5771 5769 5767 5766 5766 5766 5765 5763 5763 5765 5765 5763 5762 5762 5760 5760 5759 5759 5759 5759 5759 5758 5758 5757 5756 5755 5754 5754 5754 5753 5753
5811 5808 5805 5799 5794 5788 5784 5779 5777 5776 5772 5770 5768 5765 5763 5761 5760 5759 5759 5758 5759 5758 5758 5757 5757 5756 5756 5756 5755 5755 5754 5755 5755 5754 5754 5755 5754 5753 5752 5752 5752 5752 5752
5811 5808 5801 5796 5791 5785 5781 5776 5774 5772 5769 5766 5764 5761 5758 5756 5755 5754 5754 5754 5755 5753 5752 5752 5752 5750 5750 5751 5750 5750 5751 5750 5750 5750 5749 5749 5751 5751 5751 5750 5750 5750 5751
5808 5803 5798 5794 5788 5782 5777 5772 5770 5768 5765 5762 5760 5758 5755 5752 5751 5750 5750 5750 5750 5748 5748 5747 5746 5744 5744 5744 5743 5744 5744 5745 5744 5743 5744 5744 5744 5746 5748 5748 5747 5748 5748
5803 5798 5793 5788 5784 5779 5773 5769 5765 5762 5760 5758 5756 5754 5752 5749 5748 5746 5746 5746 5744 5744 5744 5743 5743 5739 5738 5737 5737 5736 5737 5738 5739 5739 5739 5739 5739 5740 5742 5744 5745 5745 5746
5799 5793 5787 5782 5777 5774 5770 5764 5761 5758 5757 5755 5753 5750 5747 5745 5743 5742 5742 5742 5740 5739 5738 5737 5735 5734 5733 5733 5731 5733 5734 5734 5736 5736 5735 5735 5735 5736 5738 5740 5742 5744 5744
5792 5786 5781 5776 5770 5767 5763 5759 5755 5754 5752 5751 5749 5745 5742 5740 5738 5736 5737 5736 5734 5733 5732 5731 5730 5729 5729 5729 5724 5724 5728 5732 5733 5733 5733 5733 5733 5734 5735 5735 5737 5740 5743
5784 5779 5774 5769 5765 5761 5757 5754 5750 5748 5747 5746 5743 5739 5736 5734 5732 5733 5730 5729 5729 5726 5725 5725 5723 5723 5724 5724 5718 5716 5717 5724 5729 5732 5731 5729 5730 5731 5731 5732 5733 5735 5736
5776 5772 5769 5764 5759 5755 5751 5749 5745 5741 5740 5740 5737 5735 5732 5728 5726 5724 5722 5722 5721 5720 5721 5719 5717 5716 5717 5718 5717 5712 5710 5715 5724 5728 5728 5728 5727 5726 5727 5729 5730 5731 5732
5767 5765 5760 5756 5752 5748 5745 5743 5739 5734 5732 5732 5730 5730 5726 5724 5721 5719 5717 5716 5714 5715 5714 5713 5715 5712 5709 5710 5712 5712 5713 5715 5711 5716 5721 5724 5724 5722 5724 5726 5727 5728 5728
5758 5755 5751 5747 5744 5741 5739 5736 5732 5730 5729 5729 5726 5723 5720 5721 5717 5715 5712 5710 5708 5708 5707 5706 5705 5704 5705 5705 5706 5707 5708 5709 5709 5707 5711 5717 5719 5721 5722 5721 5722 5723 5724
5749 5747 5744 5739 5735 5734 5732 5730 5726 5723 5721 5719 5717 5716 5716 5717 5714 5712 5707 5704 5702 5702 5701 5700 5699 5699 5699 5700 5701 5702 5702 5704 5707 5708 5708 5711 5712 5716 5716 5716 5715 5716 5716